Location: �clusier
(49.9361°N, 2.7869°E)
Time: 21:10:07
(UTC+00:00)

Meteor 2-20 - Pass Details

Date: 16 June 2021
Orbit: 939 x 958 km, 82.5° (Epoch: 02 August)

Event Time Altitude Azimuth Distance (km) Brightness Sun altitude
Rises 20:41:17 0° 185° (S) 3,609 7.1 -5.6°
Reaches altitude 10° 20:43:46 10° 185° (S) 2,665 6.4 -5.9°
Maximum altitude 20:49:52 84° 98° (E) 958 4.5 -6.6°
Drops below altitude 10° 20:55:59 10° 11° (NNE) 2,672 7.4 -7.2°
Sets 20:58:28 0° 11° (NNE) 3,618 8.1 -7.5°
